Location: *
(43.0833°N, 13.0500°E)
Time: 07:05:07
(UTC+00:00)

NOSS 3-1 (A) - Pass Details

Date: 15 November 2019
Orbit: 769 x 1443 km, 63.4° (Epoch: 01 December)

Event Time Altitude Azimuth Distance (km) Brightness Sun altitude
Rises 16:18:13 0° 186° (S) 3,255 6.6 -6.6°
Reaches altitude 10° 16:20:43 10° 176° (S) 2,369 5.8 -7.0°
Maximum altitude 16:25:32 33° 113° (ESE) 1,392 4.0 -7.8°
Drops below altitude 10° 16:30:54 10° 51° (NE) 2,662 5.2 -8.8°
Enters shadow 16:31:28 - 49° (NE) 2,864 5.4 -8.9°
